#timestamp,LO_Frequency,Hit,StdDev 
1506466815.5,286047001.3,N
1506466835.3,286047004.0,N
1506466855.2,286047002.9,N
1506466875.9,286047005.1,N
1506466895.7,286047004.7,N
1506466915.6,286047008.8,N
1506466935.4,286047007.7,N
1506466955.2,286047008.2,N
1506466975.1,286047014.0,Y
1506466976.0,286047014.0,P
1506466995.8,286047010.2,N
1506467015.6,286047009.8,N
1506467035.5,286047010.6,Y
1506467055.3,286047000.4,P
1506467075.1,286047002.5,N
1506467095.9,286047002.2,N
1506467115.7,286047001.1,N
1506467135.5,286046998.2,N
1506467155.4,286046999.2,N
1506467175.2,286046999.3,N
1506467195.0,286046995.4,N
1506467195.9,286046995.4,N
1506467215.8,286046992.3,N
1506467235.6,286046987.7,N
1506467255.4,286046984.1,N
1506467275.2,286046986.3,N
1506467295.1,286046985.1,N
1506467296.0,286046985.1,N
1506467315.8,286046983.5,N
1506467335.6,286046979.1,N
1506467355.5,286046979.9,N
1506467375.3,286046976.4,N
1506467395.1,286046976.9,N
1506467415.9,286046973.4,N
1506467435.7,286046973.3,N
1506467455.5,286046974.9,N
1506467475.4,286046974.0,N
1506467495.2,286046970.9,N
1506467515.0,286046973.9,N
1506467515.9,286046973.9,N
1506467535.8,286046973.9,N
1506467555.6,286046971.8,N
1506467575.4,286046969.5,N
1506467595.3,286046970.1,N
1506467615.1,286046970.2,N
1506467616.0,286046970.2,N
1506467635.8,286046968.2,Y
1506467655.7,286046984.4,P
1506467675.5,286046982.3,P
1506467695.3,286046982.9,P
1506467715.2,286046983.0,Y
1506467735.9,286046998.9,P
1506467755.7,286046996.7,N
1506467775.6,286046998.9,N
1506467795.4,286046999.3,N
1506467815.2,286047000.7,N
1506467835.0,286047002.8,N
1506467836.0,286047002.8,N
1506467855.8,286047001.4,N
1506467875.6,286047003.1,N
1506467895.4,286047009.1,N
1506467915.3,286047005.2,N
1506467935.1,286047004.6,N
1506467955.8,286047007.7,N
1506467975.7,286047008.1,N
1506467995.5,286047009.3,N
1506468015.3,286047012.4,N
1506468035.2,286047011.7,N
1506468055.9,286047009.8,N
1506468075.7,286047010.4,N
1506468095.6,286047006.4,N
1506468115.4,286047008.7,N
1506468135.2,286047009.2,N
1506468155.0,286047010.3,N
1506468156.0,286047010.3,N
1506468175.8,286047008.1,N
1506468195.6,286047008.6,N
1506468215.4,286047008.2,N
1506468235.3,286047009.7,N
1506468255.1,286047009.2,N
1506468275.8,286047008.6,N
1506468295.7,286047008.4,N
1506468315.5,286047010.1,N
1506468335.3,286047011.4,Y
1506468355.2,286047003.0,P
1506468375.0,286047004.2,N
1506468375.9,286047004.2,N
1506468395.7,286047002.5,N
1506468415.6,286047003.1,N
1506468435.4,286047003.0,N
1506468455.2,286047001.8,N
1506468475.1,286047001.8,N
1506468476.0,286047001.8,N
1506468495.8,286047001.9,N
1506468515.6,286046998.7,N
1506468535.5,286046999.9,N
1506468555.3,286047007.5,Y
1506468575.1,286047005.0,P
1506468595.9,286047004.9,P
1506468615.7,286047006.2,P
1506468635.5,286047010.5,Y
1506468655.4,286047007.3,P
1506468675.2,286047006.9,P
1506468695.0,286047008.6,P
1506468695.9,286047008.6,Y
1506468715.8,286047003.1,P
1506468735.6,286047004.5,N
1506468755.4,286047006.4,P
1506468775.3,286047006.8,Y
1506468795.1,286047000.3,P
1506468796.0,286047000.3,N
1506468815.8,286047000.1,N
1506468835.7,286046998.2,N
1506468855.5,286047005.8,N
1506468875.3,286047004.1,N
1506468895.2,286047005.6,N
1506468915.9,286047005.4,N
1506468935.7,286047004.6,N
1506468955.6,286047009.0,Y
1506468975.4,286047003.4,P
1506468995.2,286047001.6,P
1506469015.0,286047004.1,P
1506469016.0,286047004.1,Y
1506469035.8,286047000.3,P
1506469055.6,286047000.9,N
1506469075.5,286046998.4,N
1506469095.3,286047001.2,N
1506469115.1,286047001.0,N
1506469135.8,286046998.2,N
1506469155.7,286047000.5,N
1506469175.5,286047000.4,N
1506469195.3,286047000.6,N
1506469215.2,286047003.7,N
1506469235.0,286047005.4,Y
1506469235.9,286047005.4,P
1506469255.7,286047002.9,N
1506469275.6,286047003.8,N
1506469295.4,286046999.7,N
1506469315.2,286047002.2,N
1506469335.1,286047002.2,N
1506469336.0,286047002.2,N
1506469355.8,286046998.3,N
1506469375.6,286047000.0,N
1506469395.5,286047000.3,N
1506469415.3,286047000.9,N
1506469435.1,286046998.3,N
1506469455.9,286046995.4,N
1506469475.7,286046995.4,N
1506469495.5,286046996.2,N
1506469515.4,286046997.5,N
1506469535.2,286046994.3,N
1506469555.0,286046990.6,Y
1506469555.9,286046990.6,P
1506469575.8,286046988.6,N
1506469595.6,286046990.3,N
1506469615.4,286046987.1,N
1506469635.2,286046987.2,N
1506469655.1,286046988.4,N
1506469656.0,286046988.4,N
1506469675.8,286046984.1,Y
1506469695.7,286046995.9,P
1506469715.5,286046991.7,N
1506469735.3,286046993.2,N
1506469755.2,286046991.0,Y
1506469775.9,286046997.5,P
1506469795.7,286046997.8,N
1506469815.6,286046998.0,N
1506469835.4,286046995.0,N
1506469855.2,286046995.8,N
1506469875.0,286046996.2,N
1506469875.9,286046996.2,N
1506469895.8,286046996.0,N
1506469915.6,286046995.6,N
1506469935.4,286046995.5,Y
1506469955.3,286046998.9,P
1506469975.1,286046998.7,N
1506469995.8,286047002.7,N
1506470015.7,286047000.2,N
1506470035.5,286046998.5,N
1506470055.3,286046999.3,N
1506470075.2,286046996.5,N
1506470095.9,286046995.4,N
1506470115.7,286046999.6,N
1506470135.6,286046997.4,N
1506470155.4,286046997.2,N
1506470175.2,286046995.6,N
1506470195.1,286046996.0,N
1506470196.0,286046996.0,N
1506470215.8,286046993.8,Y
1506470235.6,286046997.3,P
1506470255.5,286046998.3,P
1506470275.3,286046997.7,P
1506470295.1,286046997.7,Y
1506470315.9,286046996.5,P
1506470335.7,286046999.6,N
1506470355.5,286046999.6,N
1506470375.4,286046999.1,N
1506470395.2,286047001.4,N
